FW6892 Weather Reports


Display with metric or nautical units.
time (UTC)temp
F
wind
direction
speed
MPH
gust
MPH
rain 1hr
in
rain 24hr
in
rain mn
in
humidity
%
barometer
mb
20260508005008 49 2 3.0 4.0 0.00 0.00 0.00 53 1011.1
20260508004508 49 327 0.0 1.0 0.00 0.00 0.00 53 1011.1
20260508004007 50 24 2.0 3.0 0.00 0.00 0.00 52 1011.1
20260508003508 50 4 0.0 2.0 0.00 0.00 0.00 52 1010.8
20260508003008 50 2 2.0 4.0 0.00 0.00 0.00 51 1010.8
20260508002507 50 0 3.0 4.0 0.00 0.00 0.00 51 1010.8
20260508002007 50 7 4.0 5.0 0.00 0.00 0.00 50 1010.8
20260508001508 50 351 4.0 4.0 0.00 0.00 0.00 50 1010.8
20260508001007 51 347 2.0 4.0 0.00 0.00 0.00 49 1010.8
20260508000508 51 319 2.0 4.0 0.00 0.00 0.00 48 1010.8
20260508000008 51 289 3.0 4.0 0.00 0.00 0.00 47 1010.8
20260507235507 51 327 3.0 4.0 0.00 0.00 0.00 47 1010.8
20260507235008 51 314 4.0 5.0 0.00 0.00 0.00 47 1010.8
20260507234008 52 315 3.0 3.0 0.00 0.00 0.00 46 1010.8
20260507233008 52 303 9.0 9.0 0.00 0.00 0.00 45 1010.4
20260507232507 52 267 4.0 13.0 0.00 0.00 0.00 45 1010.4
20260507231508 52 325 7.0 10.0 0.00 0.00 0.00 44 1010.4
20260507230508 52 310 4.0 11.0 0.00 0.00 0.00 43 1010.4
20260507230008 53 351 9.0 9.0 0.00 0.00 0.00 43 1010.4
20260507225508 53 330 3.0 8.0 0.00 0.00 0.00 43 1010.4
20260507225007 53 335 4.0 10.0 0.00 0.00 0.00 43 1010.4
20260507224508 53 304 5.0 13.0 0.00 0.00 0.00 44 1010.4
20260507224008 53 299 3.0 12.0 0.00 0.00 0.00 46 1010.4
20260507223508 52 359 8.0 10.0 0.00 0.00 0.00 47 1010.4
20260507223008 52 334 4.0 10.0 0.00 0.00 0.00 48 1010.4
20260507222509 52 359 7.0 7.0 0.00 0.00 0.00 51 1010.4
20260507222008 52 18 3.0 6.0 0.00 0.00 0.00 51 1010.4
20260507221508 52 358 5.0 6.0 0.00 0.00 0.00 50 1010.4
20260507221008 52 354 5.0 7.0 0.00 0.00 0.00 49 1010.4
20260507220509 53 357 7.0 15.0 0.00 0.00 0.00 47 1010.4
20260507220008 54 275 6.0 6.0 0.00 0.00 0.00 46 1010.4
20260507215508 54 17 4.0 7.0 0.00 0.00 0.00 46 1010.4
20260507215008 55 286 6.0 10.0 0.00 0.00 0.00 44 1010.4
20260507214508 55 317 8.0 8.0 0.00 0.00 0.00 44 1010.4
20260507213508 55 326 6.0 9.0 0.00 0.00 0.00 44 1010.1
20260507213008 56 277 8.0 10.0 0.00 0.00 0.00 44 1010.1
20260507212507 55 357 6.0 10.0 0.00 0.00 0.00 43 1010.1
20260507212007 55 345 9.0 11.0 0.00 0.00 0.00 43 1010.1
20260507211508 55 252 4.0 14.0 0.00 0.00 0.00 43 1010.1
20260507211009 55 300 8.0 8.0 0.00 0.00 0.00 44 1009.8
20260507210008 55 310 8.0 12.0 0.00 0.00 0.00 45 1009.8
20260507205508 54 298 10.0 10.0 0.00 0.00 0.00 45 1009.8
20260507205008 54 279 8.0 8.0 0.00 0.00 0.00 44 1009.8
20260507204508 55 317 7.0 13.0 0.00 0.00 0.00 43 1009.8
20260507204008 55 330 6.0 13.0 0.00 0.00 0.00 42 1010.1
20260507203507 56 281 7.0 13.0 0.00 0.00 0.00 40 1009.8
20260507203008 57 311 16.0 16.0 0.00 0.00 0.00 40 1009.8
20260507202508 57 322 9.0 14.0 0.00 0.00 0.00 39 1009.8
20260507200508 57 321 8.0 10.0 0.00 0.00 0.00 41 1009.8
20260507200008 56 336 7.0 15.0 0.00 0.00 0.00 42 1009.8
20260507195508 56 334 10.0 12.0 0.00 0.00 0.00 43 1009.8
20260507195007 56 358 8.0 17.0 0.00 0.00 0.00 41 1009.8
20260507194508 56 343 7.0 11.0 0.00 0.00 0.00 40 1009.8
20260507194009 56 320 8.0 11.0 0.00 0.00 0.00 42 1010.1
20260507193507 56 308 7.0 16.0 0.00 0.00 0.00 44 1009.8
20260507193009 55 238 9.0 13.0 0.00 0.00 0.00 44 1009.8
20260507192508 53 350 9.0 12.0 0.00 0.00 0.00 46 1009.8
20260507191007 53 310 10.0 10.0 0.00 0.00 0.00 46 1010.1
20260507190508 53 248 13.0 22.0 0.00 0.00 0.00 46 1010.1
20260507190008 53 311 7.0 20.0 0.00 0.00 0.00 46 1010.1
20260507185509 53 302 15.0 15.0 0.00 0.00 0.00 45 1009.8
20260507185008 53 290 9.0 15.0 0.00 0.00 0.00 44 1010.1
20260507184508 54 321 8.0 9.0 0.00 0.00 0.00 44 1010.1
20260507184008 55 297 10.0 13.0 0.00 0.00 0.00 43 1010.1
20260507183508 54 339 10.0 13.0 0.00 0.00 0.00 46 1009.8
20260507183008 53 224 11.0 13.0 0.00 0.00 0.00 45 1010.1
20260507182508 53 297 14.0 16.0 0.00 0.00 0.00 46 1010.1
20260507181507 53 338 10.0 10.0 0.00 0.00 0.00 45 1009.8
20260507181010 53 334 9.0 12.0 0.00 0.00 0.00 44 1010.1
20260507180508 54 274 7.0 11.0 0.00 0.00 0.00 45 1009.8
20260507180012 53 19 9.0 10.0 0.00 0.00 0.00 45 1009.8
20260507175508 53 307 15.0 15.0 0.00 0.00 0.00 45 1009.8
20260507175008 53 328 10.0 12.0 0.00 0.00 0.00 46 1009.8
20260507174508 53 305 4.0 9.0 0.00 0.00 0.00 46 1009.4
20260507174008 54 302 9.0 15.0 0.00 0.00 0.00 45 1009.8
20260507173508 54 271 10.0 13.0 0.00 0.00 0.00 45 1009.8
20260507172508 53 253 15.0 15.0 0.00 0.00 0.00 45 1009.8
20260507172008 53 284 7.0 11.0 0.00 0.00 0.00 44 1009.8
20260507171508 53 144 9.0 12.0 0.00 0.00 0.00 46 1009.4
20260507171008 54 344 4.0 11.0 0.00 0.00 0.00 44 1009.8
20260507170509 54 275 10.0 11.0 0.00 0.00 0.00 44 1009.8
20260507170008 54 301 14.0 16.0 0.00 0.00 0.00 45 1009.8
20260507165509 54 307 6.0 14.0 0.00 0.00 0.00 45 1009.8
20260507164508 53 296 12.0 16.0 0.00 0.00 0.00 46 1009.8
20260507164008 53 306 10.0 14.0 0.00 0.00 0.00 46 1009.8
20260507163508 53 303 8.0 17.0 0.00 0.00 0.00 46 1010.1
20260507163008 55 254 7.0 14.0 0.00 0.00 0.00 46 1009.8
20260507162507 56 325 9.0 14.0 0.00 0.00 0.00 44 1009.8
20260507162008 58 312 9.0 15.0 0.00 0.00 0.00 46 1009.8
20260507161508 57 328 15.0 15.0 0.00 0.00 0.00 49 1009.8
20260507161008 56 304 7.0 12.0 0.00 0.00 0.00 47 1009.8
20260507160508 57 289 6.0 12.0 0.00 0.00 0.00 47 1010.1
20260507160008 58 273 9.0 15.0 0.00 0.00 0.00 48 1009.8
20260507155007 57 261 13.0 16.0 0.00 0.00 0.00 47 1009.8
20260507154508 56 280 3.0 13.0 0.00 0.00 0.00 49 1010.1
20260507153509 56 210 10.0 16.0 0.00 0.00 0.00 48 1010.1
20260507153010 57 286 11.0 15.0 0.00 0.00 0.00 47 1010.1
20260507152508 57 290 9.0 10.0 0.00 0.00 0.00 51 1010.1
20260507152008 56 269 7.0 13.0 0.00 0.00 0.00 50 1010.1
20260507151509 56 254 9.0 12.0 0.00 0.00 0.00 51 1010.1
20260507150010 54 282 8.0 16.0 0.00 0.00 0.00 53 1009.8
20260507145008 55 237 4.0 21.0 0.00 0.00 0.00 53 1009.8
20260507144508 55 82 5.0 11.0 0.00 0.00 0.00 52 1010.1
20260507144008 55 250 7.0 14.0 0.00 0.00 0.00 52 1009.8
20260507143508 54 276 13.0 17.0 0.00 0.00 0.00 53 1010.1
20260507143009 54 214 9.0 19.0 0.00 0.00 0.00 53 1010.1
20260507142508 54 203 3.0 12.0 0.00 0.00 0.00 54 1009.8
20260507142007 54 227 7.0 11.0 0.00 0.00 0.00 53 1010.1
20260507141508 54 167 7.0 11.0 0.00 0.00 0.00 54 1010.1
20260507141008 53 230 4.0 11.0 0.00 0.00 0.00 55 1010.1
20260507140508 53 260 10.0 12.0 0.00 0.00 0.00 55 1010.1
20260507140008 53 332 8.0 11.0 0.00 0.00 0.00 54 1010.1
20260507135508 52 247 11.0 13.0 0.00 0.00 0.00 58 1010.1
20260507135008 52 259 12.0 13.0 0.00 0.00 0.00 57 1010.1
20260507134508 52 273 14.0 15.0 0.00 0.00 0.00 57 1010.1
20260507134008 51 233 7.0 17.0 0.00 0.00 0.00 59 1010.1
20260507133508 50 261 9.0 12.0 0.00 0.00 0.00 58 1010.1
20260507133009 51 289 11.0 15.0 0.00 0.00 0.00 59 1010.1
20260507132508 50 256 8.0 14.0 0.00 0.00 0.00 58 1010.1
20260507132008 50 267 14.0 14.0 0.00 0.00 0.00 60 1010.1
20260507131507 50 260 3.0 12.0 0.00 0.00 0.00 60 1010.1
20260507131008 49 238 10.0 13.0 0.00 0.00 0.00 61 1010.4
20260507130508 49 209 11.0 13.0 0.00 0.00 0.00 62 1010.4
20260507130010 48 333 10.0 10.0 0.00 0.00 0.00 63 1010.1
20260507125508 48 267 4.0 12.0 0.00 0.00 0.00 64 1010.4
20260507125008 48 156 8.0 13.0 0.00 0.00 0.00 65 1010.4
20260507124508 47 238 10.0 15.0 0.00 0.00 0.00 65 1010.4
20260507124008 47 244 8.0 11.0 0.00 0.00 0.00 66 1010.1